Yosemite National Park, California, United States (95389)
Lat: 37.54N, Lon: 119.84W
Wx Zone: CAZ093
Local Info
Past Weather Observations for Tuesday, November 18, 2014

NOTE: This archive is for the closest National Weather Service station to Yosemite National Park. Information may differ from the station used for current weather conditions.

Click here for Long-term Archive

Time Weather Temperature Dewpoint Humidity Pressure Winds Precip Visibility
23:53
Clear
Hazy
52°F / 11°C 45°F / 7°C 77% 30.09 in
(1019 mb)
SSW 5.8 mph
(SSW 9 kph)
- 4SM
22:53
Mostly Cloudy
Hazy
54°F / 12°C 46°F / 8°C 77% 30.09 in
(1019 mb)
ENE 5.8 mph
(ENE 9 kph)
- 5SM
21:53
Overcast
Hazy
54°F / 12°C 46°F / 8°C 77% 30.12 in
(1020 mb)
Calm - 4SM
20:53
Mostly Cloudy
Hazy
52°F / 11°C 45°F / 7°C 77% 30.12 in
(1020 mb)
Calm - 4SM
19:53
Mostly Cloudy
Hazy
55°F / 13°C 45°F / 7°C 67% 30.09 in
(1019 mb)
NNW 3.5 mph
(NNW 6 kph)
- 4SM
18:53
Mostly Cloudy
Hazy
55°F / 13°C 46°F / 8°C 72% 30.09 in
(1019 mb)
NNW 3.5 mph
(NNW 6 kph)
- 5SM
17:53
Partly Cloudy
Hazy
55°F / 13°C 46°F / 8°C 72% 30.09 in
(1019 mb)
NW 3.5 mph
(NW 6 kph)
- 5SM
16:53
Clear
Hazy
61°F / 16°C 45°F / 7°C 55% 30.06 in
(1018 mb)
NW 4.6 mph
(NW 7 kph)
- 5SM
15:53
Clear
Hazy
61°F / 16°C 46°F / 8°C 59% 30.09 in
(1019 mb)
WNW 3.5 mph
(WNW 6 kph)
- 4SM
15:29
Clear
Hazy
63°F / 17°C 46°F / 8°C 56% 30.09 in
(1019 mb)
W 4.6 mph
(W 7 kph)
- 3SM
15:21
Clear
Hazy
63°F / 17°C 46°F / 8°C 56% 30.09 in
(1019 mb)
SSW 4.6 mph
(SSW 7 kph)
- 2 1/2SM
14:53
Clear
Hazy
64°F / 18°C 45°F / 7°C 49% 30.09 in
(1019 mb)
W 5.8 mph
(W 9 kph)
- 3SM
13:53
Clear
64°F / 18°C 43°F / 6°C 46% 30.09 in
(1019 mb)
Calm - 7SM
12:53
Clear
63°F / 17°C 43°F / 6°C 49% 30.12 in
(1020 mb)
SSE 4.6 mph
(SSE 7 kph)
- 7SM
11:53
Clear
Hazy
61°F / 16°C 43°F / 6°C 52% 30.15 in
(1021 mb)
S 4.6 mph
(S 7 kph)
- 6SM
10:53
Clear
Hazy
57°F / 14°C 45°F / 7°C 63% 30.18 in
(1022 mb)
Calm - 5SM
09:53
Clear
Hazy
52°F / 11°C 45°F / 7°C 77% 30.18 in
(1022 mb)
E 4.6 mph
(E 7 kph)
- 4SM
08:53
Clear
48°F / 9°C 43°F / 6°C 82% 30.18 in
(1022 mb)
SSE 3.5 mph
(SSE 6 kph)
- 8SM
07:53
Clear
Fog And Mist
43°F / 6°C 37°F / 3°C 81% 30.18 in
(1022 mb)
SSE 3.5 mph
(SSE 6 kph)
- 5SM
06:53
Clear
Fog And Mist
39°F / 4°C 36°F / 2°C 87% 30.15 in
(1021 mb)
SSW 3.5 mph
(SSW 6 kph)
- 4SM
05:53
Clear
Fog And Mist
43°F / 6°C 37°F / 3°C 81% 30.15 in
(1021 mb)
E 3.5 mph
(E 6 kph)
- 6SM
04:53
Clear
41°F / 5°C 36°F / 2°C 81% 30.15 in
(1021 mb)
Calm - 8SM
03:53
Clear
Fog And Mist
39°F / 4°C 36°F / 2°C 87% 30.15 in
(1021 mb)
Calm - 5SM
02:53
Clear
Fog And Mist
41°F / 5°C 37°F / 3°C 87% 30.15 in
(1021 mb)
Calm - 6SM
01:53
Clear
Fog And Mist
43°F / 6°C 37°F / 3°C 81% 30.15 in
(1021 mb)
Calm - 5SM
01:20
Clear
Fog And Mist
39°F / 4°C 37°F / 3°C 93% 30.15 in
(1021 mb)
Calm - 3SM
01:11
Clear
Fog And Mist
41°F / 5°C 37°F / 3°C 87% 30.15 in
(1021 mb)
Calm - 1 3/4SM
00:53
Clear
Fog And Mist
43°F / 6°C 37°F / 3°C 81% 30.15 in
(1021 mb)
Calm - 4SM
Time Weather Temperature Dewpoint Humidity Pressure Winds Precip Visibility


Weather for websites

WeatherForYou.com, LLC is not responsible for any damages or problems caused by this service. Current weather conditions are obtained from the closest station including government and personal stations which may have varying degrees of accuracy. Weather forecasts are derived from the NOAA NDFD. Like all things, this site belongs to Jesus Christ... He just trusts me to maintain it. If you have any questions or comments email webmaster@weatherforyou.com

Copyright © 2014, WeatherForYou.com LLC. All rights reserved.